Hourly Data Report for November 13, 2020

L'ASSOMPTION
QUEBEC
Current Station Operator: ECCC - MSC

45°48'34.000" N
73°26'05.000" W
21.00 m
7014160
71524
WEW

Download Data

Hourly Data (November 2020)
Hourly Data Report for November 13, 2020
TIME
LST
Temp Definition
°C
Dew Point Definition
°C
Rel Hum Definition
%
Precip. Amount Definition
mm

Wind Dir Definition
10's deg

Wind Spd Definition
km/h
Visibility Definition
km
Stn Press Definition
kPa
Hmdx Definition


Wind Chill Definition


Weather Definition


00:00 -1.2 -1.7 97 0.0 11 2   101.94   -2 LegendNANA
01:00 -2.3 -2.9 96 0.0 33 5   101.92   -4 LegendNANA
02:00 -1.6 -2.3 95 0.0 2 3   101.91   -3 LegendNANA
03:00 -2.4 -3.4 93 0.0 35 3   101.90   -4 LegendNANA
04:00 -2.6 -3.2 96 0.0 3 3   101.83   -4 LegendNANA
05:00 -2.4 -3.1 95 0.0 36 3   101.83   -4 LegendNANA
06:00 -1.4 -2.3 94 0.0 35 7   101.83   -4 LegendNANA
07:00 -1.0 -1.9 94 0.0 1 10   101.75   -5 LegendNANA
08:00 -0.8 -1.2 97 0.0 3 11   101.63   -5 LegendNANA
09:00 0.5 -0.6 93 0.0 2 10   101.59     LegendNANA
10:00 2.3 0.9 91 0.0 3 7   101.45     LegendNANA
11:00 3.8 -0.4 74 0.0 6 10   101.45     LegendNANA
12:00 4.2 -0.1 73 0.0 6 11   101.21     LegendNANA
13:00 5.5 0.2 69 0.0 8 10   101.11     LegendNANA
14:00 5.8 -0.9 62 0.0 12 8   101.03     LegendNANA
15:00 5.5 0.3 69 0.0 15 10   100.97     LegendNANA
16:00 5.2 2.0 80 0.0 17 8   101.00     LegendNANA
17:00 5.0 3.2 88 0.0 18 6   101.00     LegendNANA
18:00 4.4 3.2 92 0.0 25 2   100.99     LegendNANA
19:00 4.1 3.1 93 0.0 25 4   101.02     LegendNANA
20:00 3.8 2.1 88 0.0 25 4   101.02     LegendNANA
21:00 1.7 0.6 92 0.0 23 2   101.02     LegendNANA
22:00 1.1 -0.3 90 0.0 22 8   101.04     LegendNANA
23:00 0.6 -1.0 89 0.0 22 10   101.04     LegendNANA

Notes on Data Quality.

Legend

  • E = Estimated
  • M = Missing
  • NA = Not Available*
  • [empty] = Indicates an unobserved value
Date modified: